CW2433 Weather Reports


Display with metric or nautical units.
time (UTC)temp
F
wind
direction
speed
MPH
gust
MPH
rain 1hr
in
rain 24hr
in
rain mn
in
humidity
%
barometer
mb
20260904074009 83 157 2.0 5.0 0.00 0.00 0.00 66 1009.2
20260904073509 83 167 2.0 6.0 0.00 0.00 0.00 66 1009.2
20260904073010 84 175 3.0 6.0 0.00 0.00 0.00 66 1009.1
20260904072509 84 161 2.0 5.0 0.00 0.00 0.00 66 1009.1
20260904072009 84 190 2.0 6.0 0.00 0.00 0.00 65 1009.1
20260904071510 84 176 2.0 6.0 0.00 0.00 0.00 65 1009.1
20260904071010 84 162 2.0 6.0 0.00 0.00 0.00 65 1009.1
20260904070010 84 160 3.0 12.0 0.00 0.00 0.00 65 1009.2
20260904065509 84 151 2.0 7.0 0.00 0.00 0.00 65 1009.2
20260904065009 84 144 3.0 6.0 0.00 0.00 0.00 65 1009.2
20260904064510 84 162 2.0 6.0 0.00 0.00 0.00 65 1009.2
20260904064010 84 128 3.0 6.0 0.00 0.00 0.00 65 1009.2
20260904063510 84 169 2.0 10.0 0.00 0.00 0.00 66 1009.2
20260904063010 83 159 3.0 10.0 0.00 0.00 0.00 66 1009.2
20260904062510 83 176 2.0 6.0 0.00 0.00 0.00 67 1009.2
20260904062010 83 137 3.0 6.0 0.00 0.00 0.00 67 1009.2
20260904061510 83 159 2.0 7.0 0.00 0.00 0.00 68 1009.2
20260904061010 82 188 2.0 7.0 0.00 0.00 0.00 68 1009.1
20260904060510 82 175 2.0 7.0 0.00 0.00 0.00 69 1009.2
20260904060010 82 139 1.0 5.0 0.00 0.00 0.00 69 1009.2
20260904055010 82 129 1.0 7.0 0.00 0.00 0.00 69 1009.0
20260904054510 82 121 2.0 7.0 0.00 0.00 0.00 69 1009.0
20260904054010 82 163 1.0 7.0 0.00 0.00 0.00 69 1008.9
20260904053010 83 163 2.0 5.0 0.00 0.00 0.00 69 1008.8
20260904052510 83 129 1.0 10.0 0.00 0.00 0.00 69 1008.7
20260904052010 83 165 1.0 10.0 0.00 0.00 0.00 69 1008.7
20260904051509 83 151 2.0 7.0 0.00 0.00 0.00 69 1008.7
20260904051009 83 185 1.0 3.0 0.00 0.00 0.00 69 1008.7
20260904050010 83 145 1.0 7.0 0.00 0.00 0.00 69 1008.8
20260904045512 83 117 1.0 5.0 0.00 0.00 0.00 69 1008.8
20260904045009 83 154 2.0 9.0 0.00 0.00 0.00 69 1008.8
20260904044509 83 144 1.0 9.0 0.00 0.00 0.00 69 1008.8
20260904044009 83 175 3.0 7.0 0.00 0.00 0.00 69 1008.8
20260904043509 83 153 3.0 7.0 0.00 0.00 0.00 69 1008.8
20260904042509 83 152 1.0 5.0 0.00 0.00 0.00 69 1008.8
20260904042009 83 180 1.0 3.0 0.00 0.00 0.00 69 1008.8
20260904041509 83 152 1.0 3.0 0.00 0.00 0.00 69 1008.8
20260904041009 83 168 1.0 3.0 0.00 0.00 0.00 69 1008.8
20260904040509 84 165 0.0 3.0 0.00 0.00 0.00 69 1008.8
20260904040009 84 188 1.0 3.0 0.00 0.00 0.00 69 1009.0
20260904035509 84 157 1.0 3.0 0.00 0.00 0.00 69 1009.0
20260904034509 84 155 1.0 3.0 0.00 0.00 0.00 68 1009.0
20260904034009 84 162 0.0 3.0 0.00 0.00 0.00 68 1009.0
20260904033509 85 165 1.0 3.0 0.00 0.00 0.00 68 1009.0
20260904033009 85 150 0.0 3.0 0.00 0.00 0.00 68 1009.0
20260904032509 85 122 0.0 3.0 0.00 0.00 0.00 67 1009.0
20260904032009 85 144 1.0 3.0 0.00 0.00 0.00 67 1008.9
20260904031510 85 135 1.0 3.0 0.00 0.00 0.00 67 1008.9
20260904031009 86 146 0.0 2.0 0.00 0.00 0.00 66 1008.9
20260904030509 86 155 1.0 2.0 0.00 0.00 0.00 66 1008.8
20260904030010 86 151 0.0 2.0 0.00 0.00 0.00 66 1008.9
20260904025509 86 166 0.0 3.0 0.00 0.00 0.00 65 1008.9
20260904025009 86 165 1.0 3.0 0.00 0.00 0.00 65 1008.9
20260904024509 87 143 0.0 3.0 0.00 0.00 0.00 65 1008.8
20260904024009 87 148 1.0 5.0 0.00 0.00 0.00 65 1008.8
20260904023509 87 159 2.0 5.0 0.00 0.00 0.00 64 1008.8
20260904023010 87 137 2.0 5.0 0.00 0.00 0.00 64 1008.8
20260904021009 88 182 2.0 5.0 0.00 0.00 0.00 63 1008.5
20260904020510 88 127 1.0 5.0 0.00 0.00 0.00 63 1008.5
20260904020010 88 174 1.0 3.0 0.00 0.00 0.00 63 1008.5
20260904015509 88 166 1.0 5.0 0.00 0.00 0.00 63 1008.5
20260904015010 88 160 2.0 5.0 0.00 0.00 0.00 62 1008.4
20260904014510 89 159 2.0 5.0 0.00 0.00 0.00 62 1008.3
20260904014010 89 138 1.0 3.0 0.00 0.00 0.00 62 1008.3
20260904013510 89 140 1.0 6.0 0.00 0.00 0.00 61 1008.3
20260904013010 89 161 2.0 6.0 0.00 0.00 0.00 61 1008.3
20260904012510 90 127 1.0 3.0 0.00 0.00 0.00 61 1008.1
20260904011510 90 136 1.0 3.0 0.00 0.00 0.00 60 1007.9
20260904011010 90 123 1.0 3.0 0.00 0.00 0.00 59 1007.9
20260904010510 90 118 1.0 3.0 0.00 0.00 0.00 59 1007.8
20260904010010 91 159 1.0 12.0 0.00 0.00 0.00 58 1007.8
20260904005010 91 149 2.0 9.0 0.00 0.00 0.00 58 1007.8
20260904004510 91 148 2.0 10.0 0.00 0.00 0.00 57 1007.7
20260904004010 91 190 2.0 10.0 0.00 0.00 0.00 57 1007.7
20260904003510 92 202 3.0 10.0 0.00 0.00 0.00 57 1007.7
20260904003010 92 150 2.0 10.0 0.00 0.00 0.00 57 1007.6
20260904002510 92 173 2.0 9.0 0.00 0.00 0.00 57 1007.7
20260904002010 92 163 2.0 9.0 0.00 0.00 0.00 57 1007.6
20260904001510 93 150 3.0 12.0 0.00 0.00 0.00 57 1007.6
20260904001009 93 157 3.0 12.0 0.00 0.00 0.00 57 1007.6
20260904000509 93 182 2.0 12.0 0.00 0.00 0.00 58 1007.6
20260903235509 93 183 2.0 7.0 0.00 0.00 0.00 58 1007.3
20260903235009 93 155 1.0 12.0 0.00 0.00 0.00 57 1007.2
20260903234509 93 171 3.0 12.0 0.00 0.00 0.00 57 1007.2
20260903234009 93 184 3.0 10.0 0.00 0.00 0.00 57 1007.1
20260903233009 94 192 4.0 9.0 0.00 0.00 0.00 57 1007.1
20260903232509 94 166 3.0 10.0 0.00 0.00 0.00 57 1007.1
20260903232009 94 184 2.0 10.0 0.00 0.00 0.00 57 1007.1
20260903231509 94 156 4.0 10.0 0.00 0.00 0.00 56 1007.1
20260903231009 94 151 2.0 8.0 0.00 0.00 0.00 56 1007.1
20260903225509 94 162 4.0 10.0 0.00 0.00 0.00 55 1006.9
20260903225009 95 158 2.0 6.0 0.00 0.00 0.00 56 1006.9
20260903224009 95 163 3.0 10.0 0.00 0.00 0.00 54 1006.9
20260903223509 95 174 3.0 10.0 0.00 0.00 0.00 54 1006.9
20260903223010 95 184 4.0 12.0 0.00 0.00 0.00 53 1007.0
20260903222509 95 163 3.0 12.0 0.00 0.00 0.00 54 1006.9
20260903221509 95 185 4.0 12.0 0.00 0.00 0.00 53 1007.0
20260903221010 95 165 2.0 12.0 0.00 0.00 0.00 54 1006.9
20260903220509 95 179 3.0 12.0 0.00 0.00 0.00 53 1006.9
20260903215509 95 177 3.0 7.0 0.00 0.00 0.00 53 1006.9
20260903214510 95 192 5.0 15.0 0.00 0.00 0.00 52 1006.9
20260903214009 96 168 4.0 12.0 0.00 0.00 0.00 53 1006.9
20260903213509 96 171 3.0 14.0 0.00 0.00 0.00 53 1006.9
20260903213010 96 173 5.0 14.0 0.00 0.00 0.00 52 1007.0
20260903212510 96 177 5.0 12.0 0.00 0.00 0.00 52 1006.9
20260903212010 96 196 4.0 12.0 0.00 0.00 0.00 53 1006.9
20260903211510 96 159 3.0 17.0 0.00 0.00 0.00 52 1007.0
20260903211010 96 188 5.0 17.0 0.00 0.00 0.00 52 1007.0
20260903210010 96 168 4.0 12.0 0.00 0.00 0.00 52 1007.0
20260903205509 96 203 3.0 12.0 0.00 0.00 0.00 53 1007.0
20260903205010 96 163 5.0 12.0 0.00 0.00 0.00 53 1007.0
20260903204010 96 173 5.0 12.0 0.00 0.00 0.00 54 1007.1
20260903203510 96 156 3.0 13.0 0.00 0.00 0.00 54 1007.3
20260903203010 96 178 3.0 13.0 0.00 0.00 0.00 55 1007.3
20260903202510 95 200 3.0 14.0 0.00 0.00 0.00 54 1007.4
20260903202010 95 208 7.0 14.0 0.00 0.00 0.00 53 1007.4
20260903201510 95 216 3.0 14.0 0.00 0.00 0.00 55 1007.4
20260903201010 94 216 4.0 10.0 0.00 0.00 0.00 56 1007.5
20260903200510 94 184 5.0 12.0 0.00 0.00 0.00 56 1007.5
20260903195510 93 168 5.0 12.0 0.00 0.00 0.00 57 1007.6
20260903195010 93 196 4.0 12.0 0.00 0.00 0.00 57 1007.6
20260903194510 93 177 3.0 12.0 0.00 0.00 0.00 59 1007.6
20260903194010 93 175 2.0 12.0 0.00 0.00 0.00 60 1007.7
20260903193510 92 161 3.0 12.0 0.00 0.00 0.00 60 1008.0
20260903193010 92 157 3.0 12.0 0.00 0.00 0.00 61 1008.0
20260903192509 92 170 3.0 12.0 0.00 0.00 0.00 61 1008.1
20260903192009 92 207 3.0 12.0 0.00 0.00 0.00 61 1008.1
20260903191509 92 185 3.0 12.0 0.00 0.00 0.00 61 1008.1
20260903191009 92 187 3.0 12.0 0.00 0.00 0.00 61 1008.4
20260903190509 92 205 3.0 12.0 0.00 0.00 0.00 61 1008.5
20260903190010 91 158 4.0 12.0 0.00 0.00 0.00 61 1008.6
20260903185509 91 195 3.0 12.0 0.00 0.00 0.00 61 1008.6
20260903185009 91 196 3.0 12.0 0.00 0.00 0.00 62 1008.6
20260903184509 91 122 2.0 10.0 0.00 0.00 0.00 63 1008.6
20260903184009 91 125 4.0 12.0 0.00 0.00 0.00 62 1008.9
20260903183509 91 150 5.0 12.0 0.00 0.00 0.00 62 1008.9
20260903183009 91 191 4.0 12.0 0.00 0.00 0.00 62 1009.0
20260903181509 91 168 2.0 9.0 0.00 0.00 0.00 61 1009.2
20260903181009 91 211 2.0 12.0 0.00 0.00 0.00 62 1009.2
20260903180509 91 150 5.0 12.0 0.00 0.00 0.00 60 1009.2
20260903180009 91 177 2.0 12.0 0.00 0.00 0.00 61 1009.2
20260903175509 91 175 3.0 12.0 0.00 0.00 0.00 59 1009.3
20260903175009 91 167 3.0 9.0 0.00 0.00 0.00 61 1009.5
20260903174510 91 178 3.0 9.0 0.00 0.00 0.00 60 1009.4
20260903174009 90 168 3.0 10.0 0.00 0.00 0.00 61 1009.5
20260903173509 90 177 3.0 10.0 0.00 0.00 0.00 61 1009.7
20260903173009 90 167 3.0 10.0 0.00 0.00 0.00 63 1009.7
20260903172509 90 125 2.0 10.0 0.00 0.00 0.00 64 1009.7
20260903172009 89 172 2.0 6.0 0.00 0.00 0.00 65 1009.7
20260903171510 89 148 3.0 7.0 0.00 0.00 0.00 64 1009.8
20260903171009 88 163 4.0 7.0 0.00 0.00 0.00 66 1009.8
20260903170509 87 161 3.0 7.0 0.00 0.00 0.00 67 1009.9
20260903170010 87 203 2.0 5.0 0.00 0.00 0.00 69 1010.0
20260903165010 86 214 1.0 9.0 0.00 0.00 0.00 71 1010.0
20260903164510 86 175 3.0 9.0 0.00 0.00 0.00 70 1009.9
20260903163509 85 158 2.0 7.0 0.00 0.00 0.00 68 1009.8
20260903163010 85 178 2.0 12.0 0.00 0.00 0.00 69 1009.9
20260903162010 84 134 2.0 12.0 0.00 0.00 0.00 71 1010.0
20260903161510 84 174 2.0 8.0 0.00 0.00 0.00 72 1010.0
20260903161010 83 162 3.0 8.0 0.00 0.00 0.00 72 1010.0
20260903160510 83 139 4.0 9.0 0.00 0.00 0.00 73 1010.0
20260903160010 83 169 2.0 10.0 0.00 0.00 0.00 73 1009.9
20260903154510 82 183 3.0 7.0 0.00 0.00 0.00 73 1010.1
20260903154010 82 162 1.0 7.0 0.00 0.00 0.00 73 1010.1
20260903153510 82 138 3.0 7.0 0.00 0.00 0.00 73 1010.3
20260903153010 82 153 2.0 7.0 0.00 0.00 0.00 73 1010.5
20260903152510 82 129 4.0 7.0 0.00 0.00 0.00 74 1010.5
20260903152010 81 148 2.0 6.0 0.00 0.00 0.00 74 1010.5
20260903151510 81 131 2.0 6.0 0.00 0.00 0.00 74 1010.4
20260903151010 81 127 2.0 3.0 0.00 0.00 0.00 74 1010.6
20260903150010 81 142 0.0 3.0 0.00 0.00 0.00 75 1010.6
20260903145010 80 134 3.0 8.0 0.00 0.00 0.00 75 1010.2
20260903143509 80 130 1.0 6.0 0.00 0.00 0.00 76 1010.1
20260903143009 80 117 1.0 6.0 0.00 0.00 0.00 76 1010.1
20260903142509 80 114 1.0 6.0 0.00 0.00 0.00 76 1010.1
20260903142009 79 115 2.0 5.0 0.00 0.00 0.00 77 1010.1
20260903141509 79 160 2.0 6.0 0.00 0.00 0.00 77 1010.1
20260903141009 79 148 2.0 6.0 0.00 0.00 0.00 77 1010.1
20260903140009 79 151 1.0 5.0 0.00 0.00 0.00 78 1010.0
20260903135509 79 148 2.0 6.0 0.00 0.00 0.00 78 1010.0
20260903134509 79 145 2.0 3.0 0.00 0.00 0.00 79 1009.9
20260903134009 79 118 0.0 3.0 0.00 0.00 0.00 79 1010.0
20260903133509 78 141 1.0 2.0 0.00 0.00 0.00 78 1010.1
20260903133009 78 142 1.0 5.0 0.00 0.00 0.00 78 1010.2
20260903132509 78 129 1.0 5.0 0.00 0.00 0.00 78 1010.1
20260903132009 78 128 1.0 5.0 0.00 0.00 0.00 78 1010.3
20260903131510 78 159 1.0 3.0 0.00 0.00 0.00 77 1010.3
20260903131009 78 122 0.0 3.0 0.00 0.00 0.00 77 1010.4
20260903130010 78 142 1.0 2.0 0.00 0.00 0.00 77 1010.5
20260903125509 78 142 0.0 2.0 0.00 0.00 0.00 76 1010.6
20260903125009 78 142 0.0 2.0 0.00 0.00 0.00 76 1010.6
20260903124510 79 142 1.0 2.0 0.00 0.00 0.00 76 1010.4
20260903123509 79 142 0.0 2.0 0.00 0.00 0.00 76 1010.4
20260903123009 79 142 1.0 2.0 0.00 0.00 0.00 76 1010.4
20260903122509 79 142 1.0 2.0 0.00 0.00 0.00 75 1010.1
20260903122009 79 142 0.0 2.0 0.00 0.00 0.00 75 1010.0
20260903121510 79 142 0.0 2.0 0.00 0.00 0.00 74 1009.9
20260903121010 79 142 0.0 2.0 0.00 0.00 0.00 73 1009.9
20260903120509 79 142 0.0 2.0 0.00 0.00 0.00 73 1009.8
20260903120010 79 142 0.0 3.0 0.00 0.00 0.00 73 1009.7
20260903115509 79 142 1.0 3.0 0.00 0.00 0.00 72 1009.6
20260903114510 80 143 0.0 2.0 0.00 0.00 0.00 72 1009.6
20260903113510 80 143 0.0 2.0 0.00 0.00 0.00 72 1009.5
20260903112010 81 61 0.0 2.0 0.00 0.00 0.00 70 1009.2
20260903111010 81 61 1.0 3.0 0.00 0.00 0.00 70 1009.2
20260903110510 81 76 0.0 3.0 0.00 0.00 0.00 69 1009.2
20260903110010 81 67 0.0 3.0 0.00 0.00 0.00 69 1009.2
20260903105510 81 67 0.0 3.0 0.00 0.00 0.00 68 1009.3
20260903104510 81 184 0.0 2.0 0.00 0.00 0.00 67 1009.5
20260903104010 81 184 1.0 2.0 0.00 0.00 0.00 67 1009.5
20260903103510 81 184 0.0 5.0 0.00 0.00 0.00 67 1009.4
20260903103010 81 185 1.0 5.0 0.00 0.00 0.00 67 1009.3
20260903102510 81 181 2.0 3.0 0.00 0.00 0.00 67 1009.4
20260903102010 81 204 1.0 3.0 0.00 0.00 0.00 68 1009.2
20260903101510 81 190 1.0 5.0 0.00 0.00 0.00 69 1009.2
20260903101009 81 214 1.0 5.0 0.00 0.00 0.00 69 1009.1
20260903100509 81 144 1.0 7.0 0.00 0.00 0.00 69 1009.0
20260903100009 81 135 1.0 7.0 0.00 0.00 0.00 68 1008.9
20260903095509 81 115 2.0 5.0 0.00 0.00 0.00 68 1008.7
20260903095009 81 126 1.0 3.0 0.00 0.00 0.00 67 1008.8
20260903094508 82 126 2.0 5.0 0.00 0.00 0.00 66 1008.8
20260903093509 82 144 3.0 5.0 0.00 0.00 0.00 66 1008.8
20260903092509 82 138 1.0 6.0 0.00 0.00 0.00 65 1008.9
20260903092009 82 123 2.0 5.0 0.00 0.00 0.00 65 1009.1
20260903091510 82 146 1.0 5.0 0.00 0.00 0.00 65 1009.0
20260903090509 83 135 2.0 9.0 0.00 0.00 0.00 64 1009.0
20260903090008 83 145 2.0 9.0 0.00 0.00 0.00 64 1009.0
20260903085509 83 155 2.0 10.0 0.00 0.00 0.00 64 1009.0
20260903085009 83 161 2.0 10.0 0.00 0.00 0.00 64 1009.0
20260903084510 83 156 3.0 10.0 0.00 0.00 0.00 64 1009.0
20260903084009 83 137 2.0 6.0 0.00 0.00 0.00 64 1008.9
20260903083509 83 163 2.0 6.0 0.00 0.00 0.00 63 1009.0
20260903083010 83 171 2.0 7.0 0.00 0.00 0.00 63 1009.0
20260903082009 83 184 2.0 7.0 0.00 0.00 0.00 64 1008.9
20260903081509 83 165 2.0 6.0 0.00 0.00 0.00 64 1009.0
20260903081010 83 160 2.0 5.0 0.00 0.00 0.00 63 1008.9
20260903080509 83 138 1.0 6.0 0.00 0.00 0.00 63 1008.9
20260903075508 83 150 3.0 7.0 0.00 0.00 0.00 63 1009.1
20260903075009 83 171 2.0 10.0 0.00 0.00 0.00 63 1009.1
20260903074510 83 166 2.0 10.0 0.00 0.00 0.00 63 1009.1